Location: ?????
(31.8092°N, 35.2590°E)
Time: 04:21:33
(UTC+00:00)

Lacrosse 5 - Pass Details

Date: 26 October 2021
Orbit: 714 x 724 km, 57.0° (Epoch: 28 August)

Event Time Altitude Azimuth Distance (km) Brightness Sun altitude
Rises 17:15:08 0° 223° (SW) 3,122 5.7 -30.4°
Reaches altitude 10° 17:17:31 10° 225° (SW) 2,204 4.8 -30.9°
Enters shadow 17:20:44 39° 238° (WSW) 1,079 3.0 -31.6°
